Left ArrowRight Arrow

31.31129, -92.44514

Hourly Observations for June 23, 2024

Temp ( °F °C ) Dew Point ( °F °C ) Humidity (%) Winds ( mph kmh ) Pressure ( in mb ) Visibility ( mi km ) Precip ( " mm )
12:53 am 00:53 Clear 79 26.1 72 22.2 79 79 SW 5 7 30.01 1016 10 16 0.00 0.00
1:53 am 01:53 Clear 77 25 73 22.8 88 88 W 3 6 29.99 1016 10 16 0.00 0.00
2:53 am 02:53 Clear 76 24.4 72 22.2 88 88 Calm 29.98 1015 8 13 0.00 0.00
3:53 am 03:53 Clear 75 23.9 72 22.2 90 90 Calm 29.98 1015 7 11 0.00 0.00
4:53 am 04:53 Clear 74 23.3 71 21.7 91 91 Calm 29.98 1015 7 11 0.00 0.00
5:53 am 05:53 Clear 73 22.8 72 22.2 96 96 Calm 29.99 1016 7 11 0.00 0.00
6:53 am 06:53 Sunny with Mist and Fog 75 23.9 73 22.8 94 94 Calm 30.00 1016 5 8 0.00 0.00
7:53 am 07:53 Sunny with Mist and Fog 78 25.6 74 23.3 87 87 Calm 30.00 1016 6 10 0.00 0.00
8:53 am 08:53 Sunny 82 27.8 74 23.3 77 77 W 5 7 30.01 1016 8 13 0.00 0.00
9:53 am 09:53 Sunny 85 29.4 72 22.2 65 65 WSW 3 6 30.01 1016 9 14 0.00 0.00
10:53 am 10:53 Sunny 88 31.1 73 22.8 61 61 Calm 30.00 1016 8 13 0.00 0.00
11:53 am 11:53 Sunny 90 32.2 72 22.2 56 56 Calm 30.00 1016 9 14 0.00 0.00
12:53 pm 12:53 Sunny 92 33.3 71 21.7 51 51 Calm 29.98 1015 9 14 0.00 0.00
1:53 pm 13:53 Sunny 94 34.4 67 19.4 41 41 VRB 5 7 29.96 1015 9 14 0.00 0.00
2:53 pm 14:53 Sunny 96 35.6 66 18.9 38 38 Calm 29.94 1014 9 14 0.00 0.00
3:53 pm 15:53 Sunny 95 35 68 20 42 42 VRB 5 7 29.92 1013 10 16 0.00 0.00
4:53 pm 16:53 Sunny 95 35 67 19.4 40 40 W 3 6 29.91 1013 10 16 0.00 0.00
5:53 pm 17:53 Sunny 95 35 67 19.4 40 40 SSW 3 6 29.90 1012 9 14 0.00 0.00
6:53 pm 18:53 Sunny 95 35 67 19.4 40 40 NNE 3 6 29.89 1012 9 14 0.00 0.00
7:53 pm 19:53 Sunny 89 31.7 74 23.3 61 61 NE 3 6 29.89 1012 9 14 0.00 0.00
8:53 pm 20:53 Clear 85 29.4 72 22.2 65 65 S 6 9 29.90 1012 10 16 0.00 0.00
9:53 pm 21:53 Clear 83 28.3 74 23.3 74 74 S 3 6 29.91 1013 9 14 0.00 0.00
10:53 pm 22:53 Clear 81 27.2 75 23.9 82 82 Calm 29.93 1014 8 13 0.00 0.00
11:53 pm 23:53 Clear 80 26.7 74 23.3 82 82 SSW 5 7 29.94 1014 8 13 0.00 0.00

Powered by Vaisala Xweather